User: anonymous   Login
Location: La Brionne
(46.1728°N, 1.7849°E)
Time: 17:08:52
(UTC+00:00)
Language:

ATLAS CENTAUR R/B - Orbit

View from above orbital plane
View from above orbital plane
View from above satellite
View from above satellite

Ground track
Ground track

The orbit data is extracted from the following two-line orbital elements,

1 38770U 12048N   21258.84664447 0.00002150  00000-0  13586-3 0    08
2 38770  64.6555 163.8239 0160928 342.6752  17.3248 14.98602805    03
Epoch (UTC): 15 September 2021 20:19:10
Eccentricity: 0.0160928
inclination: 64.6555°
perigee height: 459 km
apogee height: 683 km
right ascension of ascending node: 163.8239°
argument of perigee: 342.6752°
revolutions per day: 14.98602805
mean anomaly at epoch: 17.3248°
orbit number at epoch: 0

The dashed part of the orbit path shows where the satellite is in the earth's shadow,  

DLR